• în Republica Moldova
  • Lista ţărilor
  • Pe 7 zile
  • Temperatura apei
  • Hartă satelitară
  • Meteo pe hartă
  • Widget-uri
  • user-avatar
    Intrare

    Meteo pe oră la Yevlakh

    Astăzi, 28 Iulie, Vineri

    Timp Temperatura Precipitaţii Vânt Presiune Umiditate
    00:00 +31°C° 0 mm 3 m/s 757 mmHg 38%
    01:00 +30°C° 0 mm 2 m/s 757 mmHg 39%
    02:00 +30°C° 0 mm 2 m/s 757 mmHg 40%
    03:00 +29°C° 0 mm 2 m/s 757 mmHg 41%
    04:00 +29°C° 0 mm 1 m/s 757 mmHg 41%
    05:00 +30°C° 0 mm 1 m/s 757 mmHg 41%
    06:00 +30°C° 0 mm 1 m/s 757 mmHg 40%
    07:00 +32°C° 0 mm 1 m/s 757 mmHg 36%
    08:00 +34°C° 0 mm 1 m/s 756 mmHg 32%
    09:00 +35°C° 0 mm 1 m/s 756 mmHg 28%
    10:00 +38°C° 0 mm 2 m/s 756 mmHg 26%
    11:00 +39°C° 0 mm 2 m/s 755 mmHg 24%
    12:00 +40°C° 0 mm 2 m/s 755 mmHg 22%
    13:00 +41°C° 0 mm 2 m/s 754 mmHg 21%
    14:00 +42°C° 0 mm 2 m/s 754 mmHg 20%
    15:00 +43°C° 0 mm 2 m/s 753 mmHg 19%
    16:00 +43°C° 0 mm 2 m/s 753 mmHg 19%
    17:00 +42°C° 0 mm 2 m/s 753 mmHg 20%
    18:00 +42°C° 0 mm 2 m/s 753 mmHg 20%
    19:00 +40°C° 0 mm 3 m/s 754 mmHg 23%
    20:00 +37°C° 0 mm 3 m/s 754 mmHg 26%
    21:00 +35°C° 0 mm 4 m/s 755 mmHg 30%
    22:00 +34°C° 0 mm 3 m/s 755 mmHg 33%
    23:00 +33°C° 0 mm 3 m/s 755 mmHg 36%

    Mâine, 29 Iulie, Sâmbătă

    Timp Temperatura Precipitaţii Vânt Presiune Umiditate
    00:00 +31°C° 0 mm 2 m/s 755 mmHg 39%
    01:00 +30°C° 0 mm 2 m/s 755 mmHg 41%
    02:00 +30°C° 0 mm 1 m/s 755 mmHg 43%
    03:00 +29°C° 0 mm 1 m/s 755 mmHg 45%
    04:00 +30°C° 0 mm 1 m/s 755 mmHg 43%
    05:00 +30°C° 0 mm 2 m/s 755 mmHg 42%
    06:00 +31°C° 0 mm 2 m/s 755 mmHg 40%
    07:00 +34°C° 0 mm 3 m/s 755 mmHg 35%
    08:00 +36°C° 0 mm 3 m/s 755 mmHg 29%
    09:00 +38°C° 0 mm 3 m/s 754 mmHg 24%
    10:00 +40°C° 0 mm 3 m/s 754 mmHg 22%
    11:00 +42°C° 0 mm 3 m/s 754 mmHg 19%
    12:00 +43°C° 0 mm 2 m/s 754 mmHg 17%
    13:00 +43°C° 0 mm 2 m/s 753 mmHg 17%
    14:00 +45°C° 0 mm 2 m/s 753 mmHg 16%
    15:00 +45°C° 0 mm 1 m/s 752 mmHg 15%
    16:00 +44°C° 0 mm 1 m/s 752 mmHg 16%
    17:00 +44°C° 0 mm 1 m/s 752 mmHg 16%
    18:00 +43°C° 0 mm 1 m/s 753 mmHg 17%
    19:00 +41°C° 0 mm 2 m/s 753 mmHg 19%
    20:00 +39°C° 0 mm 2 m/s 754 mmHg 22%
    21:00 +37°C° 0 mm 3 m/s 755 mmHg 24%
    22:00 +36°C° 0 mm 3 m/s 756 mmHg 28%
    23:00 +35°C° 0 mm 3 m/s 756 mmHg 33%

    Poimâine, 30 Iulie, Duminică

    Timp Temperatura Precipitaţii Vânt Presiune Umiditate
    00:00 +34°C° 0 mm 3 m/s 756 mmHg 37%
    01:00 +33°C° 0 mm 4 m/s 757 mmHg 38%
    02:00 +33°C° 0 mm 5 m/s 757 mmHg 40%
    03:00 +32°C° 0 mm 5 m/s 757 mmHg 42%
    04:00 +32°C° 0 mm 5 m/s 757 mmHg 42%
    05:00 +32°C° 0 mm 5 m/s 758 mmHg 42%
    06:00 +32°C° 0 mm 5 m/s 758 mmHg 42%
    07:00 +34°C° 0 mm 5 m/s 758 mmHg 37%
    08:00 +36°C° 0 mm 4 m/s 758 mmHg 32%
    09:00 +38°C° 0 mm 4 m/s 758 mmHg 27%
    10:00 +39°C° 0 mm 3 m/s 758 mmHg 25%
    11:00 +40°C° 0 mm 3 m/s 758 mmHg 23%
    12:00 +41°C° 0 mm 2 m/s 757 mmHg 21%
    13:00 +42°C° 0 mm 2 m/s 757 mmHg 20%
    14:00 +43°C° 0 mm 3 m/s 757 mmHg 19%
    15:00 +44°C° 0 mm 3 m/s 756 mmHg 19%
    16:00 +44°C° 0 mm 4 m/s 757 mmHg 20%
    17:00 +43°C° 0 mm 4 m/s 757 mmHg 21%
    18:00 +43°C° 0 mm 5 m/s 757 mmHg 22%
    19:00 +40°C° 0 mm 5 m/s 758 mmHg 27%
    20:00 +37°C° 0 mm 5 m/s 758 mmHg 33%
    21:00 +35°C° 0 mm 6 m/s 759 mmHg 39%
    22:00 +34°C° 0 mm 5 m/s 759 mmHg 42%
    23:00 +33°C° 0 mm 4 m/s 759 mmHg 45%

    31 Iulie, Luni

    Timp Temperatura Precipitaţii Vânt Presiune Umiditate
    00:00 +31°C° 0 mm 3 m/s 760 mmHg 49%
    01:00 +30°C° 0 mm 2 m/s 760 mmHg 50%
    02:00 +30°C° 0 mm 2 m/s 760 mmHg 52%
    03:00 +29°C° 0 mm 1 m/s 760 mmHg 53%
    04:00 +29°C° 0 mm 1 m/s 760 mmHg 52%
    05:00 +30°C° 0 mm 1 m/s 761 mmHg 51%
    06:00 +30°C° 0 mm 1 m/s 761 mmHg 50%
    07:00 +31°C° 0 mm 1 m/s 761 mmHg 46%
    08:00 +34°C° 0 mm 2 m/s 761 mmHg 41%
    09:00 +36°C° 0 mm 2 m/s 761 mmHg 37%
    10:00 +37°C° 0 mm 3 m/s 760 mmHg 33%
    11:00 +38°C° 0 mm 3 m/s 760 mmHg 30%
    12:00 +41°C° 0 mm 4 m/s 759 mmHg 27%
    13:00 +41°C° 0 mm 4 m/s 759 mmHg 25%
    14:00 +42°C° 0 mm 4 m/s 759 mmHg 24%
    15:00 +42°C° 0 mm 5 m/s 758 mmHg 23%
    16:00 +42°C° 0 mm 5 m/s 758 mmHg 24%
    17:00 +41°C° 0 mm 5 m/s 759 mmHg 24%
    18:00 +41°C° 0 mm 5 m/s 759 mmHg 25%
    19:00 +39°C° 0 mm 5 m/s 759 mmHg 29%
    20:00 +36°C° 0 mm 5 m/s 760 mmHg 33%
    21:00 +34°C° 0 mm 5 m/s 761 mmHg 37%
    22:00 +33°C° 0 mm 4 m/s 761 mmHg 40%
    23:00 +32°C° 0 mm 4 m/s 761 mmHg 42%

    1 August, Marţi

    Timp Temperatura Precipitaţii Vânt Presiune Umiditate
    00:00 +30°C° 0 mm 3 m/s 761 mmHg 45%
    01:00 +30°C° 0 mm 3 m/s 761 mmHg 47%
    02:00 +29°C° 0 mm 2 m/s 761 mmHg 48%
    03:00 +28°C° 0 mm 2 m/s 762 mmHg 50%
    04:00 +29°C° 0 mm 2 m/s 762 mmHg 49%
    05:00 +29°C° 0 mm 1 m/s 762 mmHg 48%
    06:00 +29°C° 0 mm 1 m/s 762 mmHg 47%
    07:00 +31°C° 0 mm 2 m/s 762 mmHg 43%
    08:00 +34°C° 0 mm 3 m/s 762 mmHg 38%
    09:00 +36°C° 0 mm 3 m/s 762 mmHg 34%
    10:00 +37°C° 0 mm 4 m/s 762 mmHg 32%
    11:00 +38°C° 0 mm 4 m/s 761 mmHg 29%
    12:00 +40°C° 0 mm 4 m/s 761 mmHg 27%
    13:00 +41°C° 0 mm 5 m/s 761 mmHg 26%
    14:00 +41°C° 0 mm 5 m/s 760 mmHg 25%
    15:00 +42°C° 0 mm 5 m/s 760 mmHg 24%
    16:00 +41°C° 0 mm 5 m/s 760 mmHg 25%
    17:00 +41°C° 0 mm 6 m/s 760 mmHg 26%
    18:00 +40°C° 0 mm 6 m/s 760 mmHg 27%
    19:00 +38°C° 0 mm 6 m/s 761 mmHg 31%
    20:00 +35°C° 0 mm 6 m/s 762 mmHg 36%
    21:00 +33°C° 0 mm 6 m/s 762 mmHg 40%
    22:00 +32°C° 0 mm 5 m/s 762 mmHg 43%
    23:00 +30°C° 0 mm 4 m/s 762 mmHg 47%

    2 August, Miercuri

    Timp Temperatura Precipitaţii Vânt Presiune Umiditate
    00:00 +29°C° 0 mm 4 m/s 762 mmHg 50%
    01:00 +29°C° 0 mm 3 m/s 762 mmHg 52%
    02:00 +28°C° 0 mm 2 m/s 762 mmHg 54%
    03:00 +28°C° 0 mm 2 m/s 762 mmHg 56%
    04:00 +28°C° 0 mm 2 m/s 763 mmHg 56%
    05:00 +28°C° 0 mm 2 m/s 763 mmHg 55%
    06:00 +28°C° 0 mm 2 m/s 763 mmHg 55%
    07:00 +30°C° 0 mm 2 m/s 763 mmHg 50%
    08:00 +33°C° 0 mm 3 m/s 763 mmHg 45%
    09:00 +34°C° 0 mm 3 m/s 762 mmHg 40%
    10:00 +36°C° 0 mm 3 m/s 762 mmHg 37%
    11:00 +37°C° 0 mm 4 m/s 762 mmHg 34%
    12:00 +38°C° 0 mm 4 m/s 761 mmHg 31%
    13:00 +40°C° 0 mm 4 m/s 761 mmHg 29%
    14:00 +41°C° 0 mm 4 m/s 760 mmHg 27%
    15:00 +42°C° 0 mm 4 m/s 760 mmHg 25%
    16:00 +41°C° 0 mm 4 m/s 760 mmHg 26%
    17:00 +41°C° 0 mm 5 m/s 760 mmHg 26%
    18:00 +40°C° 0 mm 5 m/s 760 mmHg 27%
    19:00 +37°C° 0 mm 5 m/s 760 mmHg 30%
    20:00 +35°C° 0 mm 5 m/s 761 mmHg 32%
    21:00 +33°C° 0 mm 5 m/s 761 mmHg 35%
    22:00 +32°C° 0 mm 4 m/s 761 mmHg 37%
    23:00 +30°C° 0 mm 4 m/s 761 mmHg 39%
    Arată mai mult